Location: D�derode
(51.8092°N, 10.1065°E)
Time: 07:05:18
(UTC+00:00)

YAOGAN 1 - Pass Details

Date: 01 December 2020
Orbit: 618 x 620 km, 97.9° (Epoch: 23 January)

Event Time Altitude Azimuth Distance (km) Brightness Sun altitude
Exits shadow 18:46:26 30° 263° (W) 1,122 4.3 -32.0°
Maximum altitude 18:46:30 30° 265° (W) 1,122 4.3 -32.1°
Drops below altitude 10° 18:50:21 10° 327° (NNW) 2,001 5.6 -32.7°
Sets 18:52:47 0° 338° (NNW) 2,913 6.3 -33.0°
